Time,TemperatureF,DewpointF,PressureIn,WindDirection,WindDirectionDegrees,WindSpeedMPH,WindSpeedGustMPH,Humidity,HourlyPrecipIn,Conditions,Clouds,dailyrainin,SoftwareType,DateUTC
2012-12-17 00:02:00,18.6,16.9,29.66,NNW,334,3.0,3.0,93,0.00,,---,0.00,VWS V13.01,2012-12-17 06:02:00,
2012-12-17 00:07:00,18.6,16.9,29.66,NNW,338,1.0,9.0,93,0.00,,---,0.00,VWS V13.01,2012-12-17 06:07:00,
2012-12-17 00:12:00,18.6,16.9,29.66,WNW,299,0.0,9.0,93,0.00,,---,0.00,VWS V13.01,2012-12-17 06:12:00,
2012-12-17 00:17:00,18.6,16.9,29.66,WNW,287,2.0,4.0,93,0.00,,---,0.00,VWS V13.01,2012-12-17 06:17:00,
2012-12-17 00:22:00,18.6,16.9,29.66,WNW,297,4.0,8.0,93,0.00,,---,0.00,VWS V13.01,2012-12-17 06:22:00,
2012-12-17 00:28:00,18.6,16.9,29.66,NW,323,0.0,8.0,93,0.00,,---,0.00,VWS V13.01,2012-12-17 06:28:00,
2012-12-17 00:30:00,18.5,16.8,29.66,NW,323,1.0,8.0,93,0.00,,---,0.00,VWS V13.01,2012-12-17 06:30:00,
2012-12-17 00:36:00,18.5,16.8,29.66,NW,305,3.0,5.0,93,0.00,,---,0.00,VWS V13.01,2012-12-17 06:36:00,
2012-12-17 00:41:00,18.5,16.8,29.66,NW,308,4.0,6.0,93,0.00,,---,0.00,VWS V13.01,2012-12-17 06:41:00,
2012-12-17 00:46:00,18.5,16.8,29.67,NW,308,2.0,4.0,93,0.00,,---,0.00,VWS V13.01,2012-12-17 06:46:00,
2012-12-17 00:51:00,18.5,16.8,29.67,NW,306,5.0,5.0,93,0.00,,---,0.00,VWS V13.01,2012-12-17 06:51:00,
2012-12-17 00:56:00,18.5,16.8,29.67,NW,309,2.0,6.0,93,0.00,,---,0.00,VWS V13.01,2012-12-17 06:56:00,
2012-12-17 01:01:00,18.5,16.8,29.67,NW,319,1.0,5.0,93,0.00,,---,0.00,VWS V13.01,2012-12-17 07:01:00,
2012-12-17 01:06:00,18.5,16.8,29.67,NW,319,0.0,5.0,93,0.00,,---,0.00,VWS V13.01,2012-12-17 07:06:00,
2012-12-17 01:11:00,18.5,16.8,29.67,NW,315,2.0,5.0,93,0.00,,---,0.00,VWS V13.01,2012-12-17 07:11:00,
2012-12-17 01:16:00,18.5,16.8,29.68,NW,317,1.0,2.0,93,0.00,,---,0.00,VWS V13.01,2012-12-17 07:16:00,
2012-12-17 01:22:00,18.4,16.7,29.68,NW,308,0.0,4.0,93,0.00,,---,0.00,VWS V13.01,2012-12-17 07:22:00,
2012-12-17 01:27:00,18.4,16.7,29.68,WNW,302,0.0,4.0,93,0.00,,---,0.00,VWS V13.01,2012-12-17 07:27:00,
2012-12-17 01:32:00,18.4,16.7,29.68,WNW,302,2.0,3.0,93,0.00,,---,0.00,VWS V13.01,2012-12-17 07:32:00,
2012-12-17 01:37:00,18.4,16.7,29.68,NW,306,2.0,6.0,93,0.00,,---,0.00,VWS V13.01,2012-12-17 07:37:00,
2012-12-17 01:42:00,18.3,16.6,29.68,NW,319,2.0,7.0,93,0.00,,---,0.00,VWS V13.01,2012-12-17 07:42:00,
2012-12-17 01:47:00,18.3,16.6,29.68,NW,305,0.0,4.0,93,0.00,,---,0.00,VWS V13.01,2012-12-17 07:47:00,
2012-12-17 01:52:00,18.3,16.6,29.68,NNW,340,2.0,6.0,93,0.00,,---,0.00,VWS V13.01,2012-12-17 07:52:00,
2012-12-17 01:57:00,18.3,16.6,29.68,WNW,301,1.0,6.0,93,0.00,,---,0.00,VWS V13.01,2012-12-17 07:57:00,
2012-12-17 02:02:00,18.3,16.6,29.69,West,276,6.0,6.0,93,0.00,,---,0.00,VWS V13.01,2012-12-17 08:02:00,
2012-12-17 02:07:00,18.3,16.6,29.69,NW,309,0.0,7.0,93,0.00,,---,0.00,VWS V13.01,2012-12-17 08:07:00,
2012-12-17 02:12:00,18.3,16.6,29.69,West,277,4.0,7.0,93,0.00,,---,0.00,VWS V13.01,2012-12-17 08:12:00,
2012-12-17 02:17:00,18.3,16.6,29.70,WNW,302,2.0,4.0,93,0.00,,---,0.00,VWS V13.01,2012-12-17 08:17:00,
2012-12-17 02:23:00,18.3,16.6,29.70,NW,319,0.0,4.0,93,0.00,,---,0.00,VWS V13.01,2012-12-17 08:23:00,
2012-12-17 02:28:00,18.3,16.6,29.70,WNW,292,0.0,6.0,93,0.00,,---,0.00,VWS V13.01,2012-12-17 08:28:00,
2012-12-17 02:33:00,18.2,16.5,29.70,NW,323,3.0,5.0,93,0.00,,---,0.00,VWS V13.01,2012-12-17 08:33:00,
2012-12-17 02:38:00,18.2,16.5,29.70,NW,321,1.0,5.0,93,0.00,,---,0.00,VWS V13.01,2012-12-17 08:38:00,
2012-12-17 02:43:00,18.2,16.5,29.70,WNW,294,0.0,6.0,93,0.00,,---,0.00,VWS V13.01,2012-12-17 08:43:00,
2012-12-17 02:48:00,18.2,16.5,29.70,NW,321,4.0,5.0,93,0.00,,---,0.00,VWS V13.01,2012-12-17 08:48:00,
2012-12-17 02:53:00,18.2,16.5,29.70,NW,306,0.0,6.0,93,0.00,,---,0.00,VWS V13.01,2012-12-17 08:53:00,
2012-12-17 02:58:00,18.2,16.5,29.70,NW,325,1.0,6.0,93,0.00,,---,0.00,VWS V13.01,2012-12-17 08:58:00,
2012-12-17 03:03:00,18.1,16.4,29.70,WNW,302,3.0,4.0,93,0.00,,---,0.00,VWS V13.01,2012-12-17 09:03:00,
2012-12-17 03:08:00,18.1,16.4,29.70,NNW,329,2.0,5.0,93,0.00,,---,0.00,VWS V13.01,2012-12-17 09:08:00,
2012-12-17 03:13:00,18.1,16.4,29.70,WNW,303,0.0,6.0,93,0.00,,---,0.00,VWS V13.01,2012-12-17 09:13:00,
2012-12-17 03:19:00,18.0,16.3,29.72,NW,319,4.0,6.0,93,0.00,,---,0.00,VWS V13.01,2012-12-17 09:19:00,
2012-12-17 03:24:00,18.0,16.3,29.72,NW,326,3.0,6.0,93,0.00,,---,0.00,VWS V13.01,2012-12-17 09:24:00,
2012-12-17 03:29:00,18.0,16.3,29.72,WNW,302,2.0,6.0,93,0.00,,---,0.00,VWS V13.01,2012-12-17 09:29:00,
2012-12-17 03:35:00,18.1,16.4,29.71,NW,317,1.0,5.0,93,0.00,,---,0.00,VWS V13.01,2012-12-17 09:35:00,
2012-12-17 03:40:00,18.0,16.3,29.71,WNW,298,1.0,6.0,93,0.00,,---,0.00,VWS V13.01,2012-12-17 09:40:00,
2012-12-17 03:45:00,18.0,16.3,29.70,NNW,340,2.0,6.0,93,0.00,,---,0.00,VWS V13.01,2012-12-17 09:45:00,
2012-12-17 03:50:00,18.0,16.3,29.70,NW,309,1.0,5.0,93,0.00,,---,0.00,VWS V13.01,2012-12-17 09:50:00,
2012-12-17 03:55:00,18.0,16.3,29.70,WNW,285,1.0,6.0,93,0.00,,---,0.00,VWS V13.01,2012-12-17 09:55:00,
2012-12-17 04:00:00,18.0,16.3,29.71,WNW,290,2.0,6.0,93,0.00,,---,0.00,VWS V13.01,2012-12-17 10:00:00,
2012-12-17 04:05:00,18.1,16.4,29.71,NNW,330,0.0,5.0,93,0.00,,---,0.00,VWS V13.01,2012-12-17 10:05:00,
2012-12-17 04:10:00,18.1,16.4,29.71,WNW,292,0.0,5.0,93,0.00,,---,0.00,VWS V13.01,2012-12-17 10:10:00,
2012-12-17 04:15:00,18.1,16.4,29.72,WNW,290,2.0,5.0,93,0.00,,---,0.00,VWS V13.01,2012-12-17 10:15:00,
2012-12-17 04:20:00,18.0,16.3,29.72,WNW,290,0.0,2.0,93,0.00,,---,0.00,VWS V13.01,2012-12-17 10:20:00,
2012-12-17 04:26:00,18.0,16.3,29.72,NW,304,1.0,6.0,93,0.00,,---,0.00,VWS V13.01,2012-12-17 10:26:00,
2012-12-17 04:31:00,18.0,16.3,29.72,WNW,294,3.0,3.0,93,0.00,,---,0.00,VWS V13.01,2012-12-17 10:31:00,
2012-12-17 04:36:00,18.0,16.3,29.72,NW,309,4.0,6.0,93,0.00,,---,0.00,VWS V13.01,2012-12-17 10:36:00,
2012-12-17 04:41:00,18.0,16.3,29.72,NNW,334,3.0,6.0,93,0.00,,---,0.00,VWS V13.01,2012-12-17 10:41:00,
2012-12-17 04:46:00,18.0,16.3,29.72,WNW,295,3.0,4.0,93,0.00,,---,0.00,VWS V13.01,2012-12-17 10:46:00,
2012-12-17 04:52:00,18.0,16.3,29.72,NNW,329,2.0,5.0,93,0.00,,---,0.00,VWS V13.01,2012-12-17 10:52:00,
2012-12-17 04:57:00,18.0,16.3,29.72,NW,306,2.0,5.0,93,0.00,,---,0.00,VWS V13.01,2012-12-17 10:57:00,
2012-12-17 05:02:00,18.0,16.3,29.73,West,279,0.0,3.0,93,0.00,,---,0.00,VWS V13.01,2012-12-17 11:02:00,
2012-12-17 05:07:00,18.0,16.3,29.73,WNW,296,1.0,4.0,93,0.00,,---,0.00,VWS V13.01,2012-12-17 11:07:00,
2012-12-17 05:12:00,18.0,16.3,29.73,NW,309,4.0,4.0,93,0.00,,---,0.00,VWS V13.01,2012-12-17 11:12:00,
2012-12-17 05:17:00,18.0,16.3,29.74,NW,315,2.0,2.0,93,0.00,,---,0.00,VWS V13.01,2012-12-17 11:17:00,
2012-12-17 05:22:00,18.0,16.3,29.74,NW,311,0.0,5.0,93,0.00,,---,0.00,VWS V13.01,2012-12-17 11:22:00,
2012-12-17 05:27:00,17.9,16.2,29.74,WNW,300,3.0,5.0,93,0.00,,---,0.00,VWS V13.01,2012-12-17 11:27:00,
2012-12-17 05:32:00,17.9,16.2,29.74,WNW,290,3.0,5.0,93,0.00,,---,0.00,VWS V13.01,2012-12-17 11:32:00,
2012-12-17 05:37:00,17.9,16.2,29.74,NW,306,4.0,7.0,93,0.00,,---,0.00,VWS V13.01,2012-12-17 11:37:00,
2012-12-17 05:42:00,17.8,16.1,29.74,WNW,294,3.0,7.0,93,0.00,,---,0.00,VWS V13.01,2012-12-17 11:42:00,
2012-12-17 05:47:00,17.8,16.1,29.73,WNW,288,3.0,4.0,93,0.00,,---,0.00,VWS V13.01,2012-12-17 11:47:00,
2012-12-17 05:52:00,17.8,16.1,29.73,NNW,346,2.0,5.0,93,0.00,,---,0.00,VWS V13.01,2012-12-17 11:52:00,
2012-12-17 05:58:00,17.8,16.1,29.73,WNW,284,2.0,6.0,93,0.00,,---,0.00,VWS V13.01,2012-12-17 11:58:00,
2012-12-17 06:03:00,17.7,16.0,29.73,WNW,302,0.0,5.0,93,0.00,,---,0.00,VWS V13.01,2012-12-17 12:03:00,
2012-12-17 06:08:00,17.7,16.0,29.73,NW,324,1.0,5.0,93,0.00,,---,0.00,VWS V13.01,2012-12-17 12:08:00,
2012-12-17 06:13:00,17.7,16.0,29.73,WNW,298,1.0,5.0,93,0.00,,---,0.00,VWS V13.01,2012-12-17 12:13:00,
2012-12-17 06:18:00,17.6,15.9,29.74,WNW,302,2.0,3.0,93,0.00,,---,0.00,VWS V13.01,2012-12-17 12:18:00,
2012-12-17 06:23:00,17.6,15.9,29.74,NW,307,1.0,6.0,93,0.00,,---,0.00,VWS V13.01,2012-12-17 12:23:00,
2012-12-17 06:28:00,17.6,15.9,29.74,WNW,295,4.0,7.0,93,0.00,,---,0.00,VWS V13.01,2012-12-17 12:28:00,
2012-12-17 06:33:00,17.6,15.9,29.74,WNW,302,2.0,3.0,93,0.00,,---,0.00,VWS V13.01,2012-12-17 12:33:00,
2012-12-17 06:39:00,17.5,15.8,29.74,WNW,284,4.0,6.0,93,0.00,,---,0.00,VWS V13.01,2012-12-17 12:39:00,
2012-12-17 06:45:00,17.5,15.8,29.75,West,264,4.0,6.0,93,0.00,,---,0.00,VWS V13.01,2012-12-17 12:45:00,
2012-12-17 06:50:00,17.5,15.8,29.75,WNW,300,3.0,5.0,93,0.00,,---,0.00,VWS V13.01,2012-12-17 12:50:00,
2012-12-17 06:55:00,17.4,15.7,29.75,WNW,289,3.0,5.0,93,0.00,,---,0.00,VWS V13.01,2012-12-17 12:55:00,
2012-12-17 07:00:00,17.3,15.4,29.75,NW,322,0.0,7.0,92,0.00,,---,0.00,VWS V13.01,2012-12-17 13:00:00,
2012-12-17 07:05:00,17.3,15.4,29.75,NNW,327,3.0,5.0,92,0.00,,---,0.00,VWS V13.01,2012-12-17 13:05:00,
2012-12-17 07:10:00,17.3,15.4,29.75,NNW,340,1.0,6.0,92,0.00,,---,0.00,VWS V13.01,2012-12-17 13:10:00,
2012-12-17 07:15:00,17.2,15.3,29.77,West,270,0.0,6.0,92,0.00,,---,0.00,VWS V13.01,2012-12-17 13:15:00,
2012-12-17 07:20:00,17.1,15.2,29.77,WNW,303,0.0,4.0,92,0.00,,---,0.00,VWS V13.01,2012-12-17 13:20:00,
2012-12-17 07:26:00,17.0,15.1,29.77,WNW,302,3.0,5.0,92,0.00,,---,0.00,VWS V13.01,2012-12-17 13:26:00,
2012-12-17 07:30:00,16.9,15.0,29.77,NW,319,1.0,1.0,92,0.00,,---,0.00,VWS V13.01,2012-12-17 13:30:00,
2012-12-17 07:36:00,16.7,14.8,29.77,North,360,0.0,7.0,92,0.00,,---,0.00,VWS V13.01,2012-12-17 13:36:00,
2012-12-17 07:41:00,16.5,14.6,29.77,NNW,331,2.0,7.0,92,0.00,,---,0.00,VWS V13.01,2012-12-17 13:41:00,
2012-12-17 07:46:00,16.4,14.5,29.77,NNW,331,3.0,6.0,92,0.00,,---,0.00,VWS V13.01,2012-12-17 13:46:00,
2012-12-17 07:51:00,16.4,14.5,29.77,WNW,297,1.0,6.0,92,0.00,,---,0.00,VWS V13.01,2012-12-17 13:51:00,
2012-12-17 07:56:00,16.4,14.5,29.77,NNW,329,2.0,7.0,92,0.00,,---,0.00,VWS V13.01,2012-12-17 13:56:00,
2012-12-17 08:02:00,16.4,14.5,29.77,NNW,334,0.0,3.0,92,0.00,,---,0.00,VWS V13.01,2012-12-17 14:02:00,
2012-12-17 08:07:00,16.4,14.5,29.77,NNW,327,5.0,6.0,92,0.00,,---,0.00,VWS V13.01,2012-12-17 14:07:00,
2012-12-17 08:12:00,16.4,14.5,29.77,NNW,340,2.0,6.0,92,0.00,,---,0.00,VWS V13.01,2012-12-17 14:12:00,
2012-12-17 08:17:00,16.4,14.5,29.78,NNW,331,0.0,2.0,92,0.00,,---,0.00,VWS V13.01,2012-12-17 14:17:00,
2012-12-17 08:22:00,16.4,14.5,29.78,NNW,335,3.0,5.0,92,0.00,,---,0.00,VWS V13.01,2012-12-17 14:22:00,
2012-12-17 08:27:00,16.4,14.5,29.78,NW,323,2.0,5.0,92,0.00,,---,0.00,VWS V13.01,2012-12-17 14:27:00,
2012-12-17 08:32:00,16.3,14.4,29.78,NNW,330,2.0,5.0,92,0.00,,---,0.00,VWS V13.01,2012-12-17 14:32:00,
2012-12-17 08:37:00,16.3,14.4,29.78,NNW,329,0.0,5.0,92,0.00,,---,0.00,VWS V13.01,2012-12-17 14:37:00,
2012-12-17 08:42:00,16.3,14.4,29.78,WNW,294,1.0,5.0,92,0.00,,---,0.00,VWS V13.01,2012-12-17 14:42:00,
2012-12-17 08:47:00,16.3,14.4,29.79,WNW,293,2.0,4.0,92,0.00,,---,0.00,VWS V13.01,2012-12-17 14:47:00,
2012-12-17 08:53:00,16.3,14.4,29.79,WNW,292,0.0,5.0,92,0.00,,---,0.00,VWS V13.01,2012-12-17 14:53:00,
2012-12-17 08:58:00,16.3,14.4,29.79,WNW,292,0.0,5.0,92,0.00,,---,0.00,VWS V13.01,2012-12-17 14:58:00,
2012-12-17 09:03:00,16.3,14.4,29.79,WNW,291,0.0,4.0,92,0.00,,---,0.00,VWS V13.01,2012-12-17 15:03:00,
2012-12-17 09:08:00,16.3,14.4,29.79,WNW,289,0.0,5.0,92,0.00,,---,0.00,VWS V13.01,2012-12-17 15:08:00,
2012-12-17 09:13:00,16.2,14.3,29.79,WNW,300,1.0,5.0,92,0.00,,---,0.00,VWS V13.01,2012-12-17 15:13:00,
2012-12-17 09:18:00,16.3,14.4,29.79,West,272,1.0,6.0,92,0.00,,---,0.00,VWS V13.01,2012-12-17 15:18:00,
2012-12-17 09:24:00,16.3,14.4,29.79,WNW,285,1.0,6.0,92,0.00,,---,0.00,VWS V13.01,2012-12-17 15:24:00,
2012-12-17 09:29:00,16.3,14.4,29.79,WNW,296,3.0,6.0,92,0.00,,---,0.00,VWS V13.01,2012-12-17 15:29:00,
2012-12-17 09:34:00,16.2,14.3,29.80,NW,312,3.0,4.0,92,0.00,,---,0.00,VWS V13.01,2012-12-17 15:34:00,
2012-12-17 09:40:00,16.1,14.2,29.80,WNW,289,1.0,4.0,92,0.00,,---,0.00,VWS V13.01,2012-12-17 15:40:00,
2012-12-17 09:45:00,16.1,14.2,29.80,WNW,289,2.0,4.0,92,0.00,,---,0.00,VWS V13.01,2012-12-17 15:45:00,
2012-12-17 09:50:00,16.1,14.2,29.80,NNW,328,1.0,4.0,92,0.00,,---,0.00,VWS V13.01,2012-12-17 15:50:00,
2012-12-17 09:55:00,16.1,14.2,29.80,WNW,293,1.0,5.0,92,0.00,,---,0.00,VWS V13.01,2012-12-17 15:55:00,
2012-12-17 10:00:00,16.0,14.1,29.80,NW,313,0.0,5.0,92,0.00,,---,0.00,VWS V13.01,2012-12-17 16:00:00,
2012-12-17 10:05:00,16.0,14.1,29.80,NNW,345,1.0,3.0,92,0.00,,---,0.00,VWS V13.01,2012-12-17 16:05:00,
2012-12-17 10:10:00,16.0,14.1,29.80,NNW,345,1.0,4.0,92,0.00,,---,0.00,VWS V13.01,2012-12-17 16:10:00,
2012-12-17 10:15:00,16.1,14.2,29.80,NNW,341,2.0,4.0,92,0.00,,---,0.00,VWS V13.01,2012-12-17 16:15:00,
2012-12-17 10:21:00,16.1,14.2,29.80,NNW,341,1.0,3.0,92,0.00,,---,0.00,VWS V13.01,2012-12-17 16:21:00,
2012-12-17 10:26:00,16.2,14.3,29.80,NNW,338,1.0,3.0,92,0.00,,---,0.00,VWS V13.01,2012-12-17 16:26:00,
2012-12-17 10:31:00,16.2,14.3,29.80,NW,326,0.0,1.0,92,0.00,,---,0.00,VWS V13.01,2012-12-17 16:31:00,
2012-12-17 10:36:00,16.1,14.2,29.80,NW,326,0.0,4.0,92,0.00,,---,0.00,VWS V13.01,2012-12-17 16:36:00,
2012-12-17 10:41:00,16.2,14.3,29.80,NW,326,1.0,4.0,92,0.00,,---,0.00,VWS V13.01,2012-12-17 16:41:00,
2012-12-17 10:46:00,16.3,14.4,29.79,NW,322,2.0,4.0,92,0.00,,---,0.00,VWS V13.01,2012-12-17 16:46:00,
2012-12-17 10:51:00,16.3,14.4,29.79,NW,322,0.0,4.0,92,0.00,,---,0.00,VWS V13.01,2012-12-17 16:51:00,
2012-12-17 10:57:00,16.3,14.4,29.79,NW,322,0.0,4.0,92,0.00,,---,0.00,VWS V13.01,2012-12-17 16:57:00,
2012-12-17 11:02:00,16.4,14.5,29.78,NW,321,1.0,2.0,92,0.00,,---,0.00,VWS V13.01,2012-12-17 17:02:00,
2012-12-17 11:07:00,16.4,14.5,29.78,NW,309,2.0,5.0,92,0.00,,---,0.00,VWS V13.01,2012-12-17 17:07:00,
2012-12-17 11:12:00,16.4,14.5,29.78,West,270,3.0,6.0,92,0.00,,---,0.00,VWS V13.01,2012-12-17 17:12:00,
2012-12-17 11:17:00,16.4,14.5,29.79,West,281,0.0,1.0,92,0.00,,---,0.00,VWS V13.01,2012-12-17 17:17:00,
2012-12-17 11:22:00,16.4,14.5,29.79,North,355,1.0,4.0,92,0.00,,---,0.00,VWS V13.01,2012-12-17 17:22:00,
2012-12-17 11:27:00,16.5,14.6,29.79,NNW,335,2.0,4.0,92,0.00,,---,0.00,VWS V13.01,2012-12-17 17:27:00,
2012-12-17 11:32:00,16.5,14.6,29.77,West,271,1.0,4.0,92,0.00,,---,0.00,VWS V13.01,2012-12-17 17:32:00,
2012-12-17 11:37:00,16.5,14.6,29.77,West,268,0.0,5.0,92,0.00,,---,0.00,VWS V13.01,2012-12-17 17:37:00,
2012-12-17 11:42:00,16.4,14.5,29.77,West,264,5.0,5.0,92,0.00,,---,0.00,VWS V13.01,2012-12-17 17:42:00,
2012-12-17 11:48:00,16.4,14.5,29.78,West,264,0.0,4.0,92,0.00,,---,0.00,VWS V13.01,2012-12-17 17:48:00,
2012-12-17 11:52:00,16.5,14.6,29.78,West,261,3.0,4.0,92,0.00,,---,0.00,VWS V13.01,2012-12-17 17:52:00,
2012-12-17 11:58:00,16.4,14.5,29.78,West,261,2.0,5.0,92,0.00,,---,0.00,VWS V13.01,2012-12-17 17:58:00,
2012-12-17 12:03:00,16.3,14.4,29.78,WNW,288,2.0,2.0,92,0.00,,---,0.00,VWS V13.01,2012-12-17 18:03:00,
2012-12-17 12:08:00,16.4,14.5,29.78,NW,319,2.0,4.0,92,0.00,,---,0.00,VWS V13.01,2012-12-17 18:08:00,
2012-12-17 12:13:00,16.3,14.4,29.78,NNW,327,1.0,5.0,92,0.00,,---,0.00,VWS V13.01,2012-12-17 18:13:00,
2012-12-17 12:18:00,16.3,14.4,29.77,NW,304,3.0,5.0,92,0.00,,---,0.00,VWS V13.01,2012-12-17 18:18:00,
2012-12-17 12:23:00,16.2,14.3,29.77,NW,311,1.0,5.0,92,0.00,,---,0.00,VWS V13.01,2012-12-17 18:23:00,
2012-12-17 12:28:00,16.2,14.3,29.77,NW,311,3.0,5.0,92,0.00,,---,0.00,VWS V13.01,2012-12-17 18:28:00,
2012-12-17 12:33:00,16.3,14.4,29.77,NW,323,2.0,4.0,92,0.00,,---,0.00,VWS V13.01,2012-12-17 18:33:00,
2012-12-17 12:38:00,16.3,14.4,29.77,NW,314,1.0,6.0,92,0.00,,---,0.00,VWS V13.01,2012-12-17 18:38:00,
2012-12-17 12:43:00,16.5,14.6,29.77,NNW,328,0.0,6.0,92,0.00,,---,0.00,VWS V13.01,2012-12-17 18:43:00,
2012-12-17 12:49:00,16.5,14.6,29.75,NW,324,0.0,6.0,92,0.00,,---,0.00,VWS V13.01,2012-12-17 18:49:00,
2012-12-17 12:55:00,16.4,14.5,29.75,West,268,0.0,6.0,92,0.00,,---,0.00,VWS V13.01,2012-12-17 18:55:00,
2012-12-17 13:00:00,16.5,14.6,29.75,WNW,292,3.0,6.0,92,0.00,,---,0.00,VWS V13.01,2012-12-17 19:00:00,
2012-12-17 13:05:00,16.5,14.6,29.75,NW,306,2.0,5.0,92,0.00,,---,0.00,VWS V13.01,2012-12-17 19:05:00,
2012-12-17 13:10:00,16.4,14.5,29.75,WNW,282,4.0,5.0,92,0.00,,---,0.00,VWS V13.01,2012-12-17 19:10:00,
2012-12-17 13:15:00,16.3,14.4,29.76,West,280,2.0,6.0,92,0.00,,---,0.00,VWS V13.01,2012-12-17 19:15:00,
2012-12-17 13:21:00,16.5,14.6,29.76,NW,318,4.0,4.0,92,0.00,,---,0.00,VWS V13.01,2012-12-17 19:21:00,
2012-12-17 13:26:00,16.6,14.7,29.76,NW,315,3.0,4.0,92,0.00,,---,0.00,VWS V13.01,2012-12-17 19:26:00,
2012-12-17 13:31:00,16.5,14.6,29.76,WNW,284,3.0,3.0,92,0.00,,---,0.00,VWS V13.01,2012-12-17 19:31:00,
2012-12-17 13:36:00,16.5,14.6,29.76,WNW,301,5.0,5.0,92,0.00,,---,0.00,VWS V13.01,2012-12-17 19:36:00,
2012-12-17 13:41:00,16.6,14.7,29.76,WNW,292,1.0,5.0,92,0.00,,---,0.00,VWS V13.01,2012-12-17 19:41:00,
2012-12-17 13:46:00,16.6,14.7,29.75,WNW,296,3.0,3.0,92,0.00,,---,0.00,VWS V13.01,2012-12-17 19:46:00,
2012-12-17 13:51:00,16.6,14.7,29.75,WNW,295,3.0,6.0,92,0.00,,---,0.00,VWS V13.01,2012-12-17 19:51:00,
2012-12-17 13:56:00,16.6,14.7,29.75,WNW,292,2.0,6.0,92,0.00,,---,0.00,VWS V13.01,2012-12-17 19:56:00,
2012-12-17 14:02:00,16.8,14.9,29.75,WNW,292,0.0,4.0,92,0.00,,---,0.00,VWS V13.01,2012-12-17 20:02:00,
2012-12-17 14:07:00,16.8,14.9,29.75,WNW,292,0.0,4.0,92,0.00,,---,0.00,VWS V13.01,2012-12-17 20:07:00,
2012-12-17 14:12:00,16.9,15.0,29.75,WNW,290,0.0,5.0,92,0.00,,---,0.00,VWS V13.01,2012-12-17 20:12:00,
2012-12-17 14:17:00,16.9,15.0,29.75,NNW,329,2.0,3.0,92,0.00,,---,0.00,VWS V13.01,2012-12-17 20:17:00,
2012-12-17 14:22:00,17.0,15.1,29.75,NNW,329,2.0,4.0,92,0.00,,---,0.00,VWS V13.01,2012-12-17 20:22:00,
2012-12-17 14:27:00,17.1,15.2,29.75,NNW,329,3.0,4.0,92,0.00,,---,0.00,VWS V13.01,2012-12-17 20:27:00,
2012-12-17 14:32:00,17.2,15.3,29.75,NW,313,1.0,3.0,92,0.00,,---,0.00,VWS V13.01,2012-12-17 20:32:00,
2012-12-17 14:38:00,17.2,15.3,29.75,NW,308,0.0,4.0,92,0.00,,---,0.00,VWS V13.01,2012-12-17 20:38:00,
2012-12-17 14:43:00,17.2,15.3,29.75,NW,308,1.0,4.0,92,0.00,,---,0.00,VWS V13.01,2012-12-17 20:43:00,
2012-12-17 14:48:00,17.2,15.3,29.74,NW,308,0.0,3.0,92,0.00,,---,0.00,VWS V13.01,2012-12-17 20:48:00,
2012-12-17 14:53:00,17.2,15.3,29.74,NW,308,1.0,3.0,92,0.00,,---,0.00,VWS V13.01,2012-12-17 20:53:00,
2012-12-17 14:58:00,17.2,15.3,29.74,NW,308,1.0,3.0,92,0.00,,---,0.00,VWS V13.01,2012-12-17 20:58:00,
2012-12-17 15:04:00,17.3,15.4,29.75,NW,308,0.0,3.0,92,0.00,,---,0.00,VWS V13.01,2012-12-17 21:04:00,
2012-12-17 15:09:00,17.2,15.3,29.75,NW,309,0.0,4.0,92,0.00,,---,0.00,VWS V13.01,2012-12-17 21:09:00,
2012-12-17 15:14:00,17.2,15.3,29.75,NW,307,2.0,4.0,92,0.00,,---,0.00,VWS V13.01,2012-12-17 21:14:00,
2012-12-17 15:19:00,17.2,15.3,29.75,NW,306,0.0,5.0,92,0.00,,---,0.00,VWS V13.01,2012-12-17 21:19:00,
2012-12-17 15:24:00,17.2,15.3,29.75,NW,306,0.0,5.0,92,0.00,,---,0.00,VWS V13.01,2012-12-17 21:24:00,
2012-12-17 15:29:00,17.2,15.3,29.75,NNW,333,1.0,5.0,92,0.00,,---,0.00,VWS V13.01,2012-12-17 21:29:00,
2012-12-17 15:35:00,17.2,15.3,29.75,NNW,331,1.0,3.0,92,0.00,,---,0.00,VWS V13.01,2012-12-17 21:35:00,
2012-12-17 15:40:00,17.2,15.3,29.75,WNW,303,0.0,6.0,92,0.00,,---,0.00,VWS V13.01,2012-12-17 21:40:00,
2012-12-17 15:45:00,17.2,15.3,29.75,WNW,303,0.0,6.0,92,0.00,,---,0.00,VWS V13.01,2012-12-17 21:45:00,
2012-12-17 15:50:00,17.3,15.4,29.75,WNW,303,0.0,2.0,92,0.00,,---,0.00,VWS V13.01,2012-12-17 21:50:00,
2012-12-17 15:55:00,17.3,15.4,29.75,WNW,303,2.0,3.0,92,0.00,,---,0.00,VWS V13.01,2012-12-17 21:55:00,
2012-12-17 16:00:00,17.2,15.3,29.76,WNW,303,0.0,3.0,92,0.00,,---,0.00,VWS V13.01,2012-12-17 22:00:00,
2012-12-17 16:07:00,17.3,15.4,29.76,WNW,303,0.0,2.0,92,0.00,,---,0.00,VWS V13.01,2012-12-17 22:07:00,
2012-12-17 16:12:00,17.3,15.4,29.76,WNW,303,0.0,2.0,92,0.00,,---,0.00,VWS V13.01,2012-12-17 22:12:00,
2012-12-17 16:17:00,17.3,15.4,29.76,WNW,303,0.0,3.0,92,0.00,,---,0.00,VWS V13.01,2012-12-17 22:17:00,
2012-12-17 16:22:00,17.3,15.4,29.76,WNW,303,0.0,3.0,92,0.00,,---,0.00,VWS V13.01,2012-12-17 22:22:00,
2012-12-17 16:27:00,17.2,15.3,29.76,WNW,303,0.0,4.0,92,0.00,,---,0.00,VWS V13.01,2012-12-17 22:27:00,
2012-12-17 16:32:00,17.2,15.3,29.76,WNW,303,0.0,2.0,92,0.00,,---,0.00,VWS V13.01,2012-12-17 22:32:00,
2012-12-17 16:37:00,17.2,15.3,29.76,NW,322,0.0,3.0,92,0.00,,---,0.00,VWS V13.01,2012-12-17 22:37:00,
2012-12-17 16:42:00,17.1,15.2,29.76,NW,322,0.0,3.0,92,0.00,,---,0.00,VWS V13.01,2012-12-17 22:42:00,
2012-12-17 16:47:00,17.1,15.2,29.76,NW,322,0.0,1.0,92,0.00,,---,0.00,VWS V13.01,2012-12-17 22:47:00,
2012-12-17 16:52:00,17.2,15.3,29.76,NW,322,0.0,1.0,92,0.00,,---,0.00,VWS V13.01,2012-12-17 22:52:00,
2012-12-17 18:02:00,17.4,15.7,29.77,NW,319,0.0,0.0,93,0.00,,---,0.00,VWS V13.01,2012-12-18 00:02:00,
2012-12-17 18:07:00,17.4,15.5,29.77,NW,319,0.0,2.0,92,0.00,,---,0.00,VWS V13.01,2012-12-18 00:07:00,
2012-12-17 18:12:00,17.4,15.7,29.77,NW,319,0.0,2.0,93,0.00,,---,0.00,VWS V13.01,2012-12-18 00:12:00,
2012-12-17 18:17:00,17.4,15.7,29.77,NW,319,0.0,3.0,93,0.00,,---,0.00,VWS V13.01,2012-12-18 00:17:00,
2012-12-17 18:22:00,17.4,15.7,29.77,NW,319,0.0,4.0,93,0.00,,---,0.00,VWS V13.01,2012-12-18 00:22:00,
2012-12-17 18:27:00,17.4,15.7,29.77,NW,319,0.0,4.0,93,0.00,,---,0.00,VWS V13.01,2012-12-18 00:27:00,
2012-12-17 18:32:00,17.4,15.7,29.78,NW,319,0.0,1.0,93,0.00,,---,0.00,VWS V13.01,2012-12-18 00:32:00,
2012-12-17 18:37:00,17.5,15.8,29.78,NW,319,0.0,1.0,93,0.00,,---,0.00,VWS V13.01,2012-12-18 00:37:00,
2012-12-17 18:42:00,17.5,15.8,29.78,NW,319,0.0,3.0,93,0.00,,---,0.00,VWS V13.01,2012-12-18 00:42:00,
2012-12-17 18:47:00,17.5,15.8,29.78,NW,319,0.0,1.0,93,0.00,,---,0.00,VWS V13.01,2012-12-18 00:47:00,
2012-12-17 18:53:00,17.5,15.8,29.78,NW,319,0.0,1.0,93,0.00,,---,0.00,VWS V13.01,2012-12-18 00:53:00,
2012-12-17 18:58:00,17.5,15.8,29.78,NW,319,0.0,1.0,93,0.00,,---,0.00,VWS V13.01,2012-12-18 00:58:00,
2012-12-17 19:03:00,17.5,15.8,29.78,NW,319,1.0,2.0,93,0.00,,---,0.00,VWS V13.01,2012-12-18 01:03:00,
2012-12-17 19:08:00,17.5,15.8,29.78,NW,319,0.0,2.0,93,0.00,,---,0.00,VWS V13.01,2012-12-18 01:08:00,
2012-12-17 19:13:00,17.5,15.8,29.78,NW,319,0.0,3.0,93,0.00,,---,0.00,VWS V13.01,2012-12-18 01:13:00,
2012-12-17 19:18:00,17.5,15.8,29.78,NW,319,0.0,0.0,93,0.00,,---,0.00,VWS V13.01,2012-12-18 01:18:00,
2012-12-17 19:23:00,17.5,15.8,29.78,NW,319,0.0,0.0,93,0.00,,---,0.00,VWS V13.01,2012-12-18 01:23:00,
2012-12-17 19:28:00,17.5,15.8,29.78,NW,319,0.0,0.0,93,0.00,,---,0.00,VWS V13.01,2012-12-18 01:28:00,
2012-12-17 19:33:00,17.5,15.8,29.79,NW,319,0.0,1.0,93,0.00,,---,0.00,VWS V13.01,2012-12-18 01:33:00,
2012-12-17 19:39:00,17.5,15.8,29.79,NW,319,0.0,2.0,93,0.00,,---,0.00,VWS V13.01,2012-12-18 01:39:00,
2012-12-17 19:44:00,17.5,15.8,29.79,NW,319,0.0,2.0,93,0.00,,---,0.00,VWS V13.01,2012-12-18 01:44:00,
2012-12-17 19:49:00,17.5,15.8,29.79,NW,319,0.0,0.0,93,0.00,,---,0.00,VWS V13.01,2012-12-18 01:49:00,
2012-12-17 19:54:00,17.5,15.8,29.79,NW,319,0.0,1.0,93,0.00,,---,0.00,VWS V13.01,2012-12-18 01:54:00,
2012-12-17 19:59:00,17.5,15.8,29.79,NW,319,0.0,1.0,93,0.00,,---,0.00,VWS V13.01,2012-12-18 01:59:00,
2012-12-17 20:05:00,17.5,15.8,29.79,NW,319,0.0,0.0,93,0.00,,---,0.00,VWS V13.01,2012-12-18 02:05:00,
2012-12-17 20:10:00,17.6,15.9,29.79,NW,319,0.0,0.0,93,0.00,,---,0.00,VWS V13.01,2012-12-18 02:10:00,
2012-12-17 20:15:00,17.5,15.8,29.79,NW,319,0.0,1.0,93,0.00,,---,0.00,VWS V13.01,2012-12-18 02:15:00,
2012-12-17 20:20:00,17.5,15.8,29.79,NW,319,0.0,0.0,93,0.00,,---,0.00,VWS V13.01,2012-12-18 02:20:00,
2012-12-17 20:25:00,17.5,15.8,29.79,NW,319,0.0,0.0,93,0.00,,---,0.00,VWS V13.01,2012-12-18 02:25:00,
2012-12-17 20:30:00,17.5,15.8,29.79,NW,319,0.0,2.0,93,0.00,,---,0.00,VWS V13.01,2012-12-18 02:30:00,
2012-12-17 20:35:00,17.5,15.8,29.79,NW,317,0.0,1.0,93,0.00,,---,0.00,VWS V13.01,2012-12-18 02:35:00,
2012-12-17 20:41:00,17.4,15.7,29.79,NW,317,0.0,1.0,93,0.00,,---,0.00,VWS V13.01,2012-12-18 02:41:00,
2012-12-17 20:46:00,17.4,15.5,29.81,NW,317,0.0,1.0,92,0.00,,---,0.00,VWS V13.01,2012-12-18 02:46:00,
2012-12-17 20:51:00,17.3,15.4,29.81,NW,313,0.0,1.0,92,0.00,,---,0.00,VWS V13.01,2012-12-18 02:51:00,
2012-12-17 20:56:00,17.2,15.3,29.81,NW,311,0.0,3.0,92,0.00,,---,0.00,VWS V13.01,2012-12-18 02:56:00,
2012-12-17 21:01:00,17.2,15.3,29.81,NW,311,0.0,1.0,92,0.00,,---,0.00,VWS V13.01,2012-12-18 03:01:00,
2012-12-17 21:06:00,17.1,15.2,29.81,NW,311,0.0,1.0,92,0.00,,---,0.00,VWS V13.01,2012-12-18 03:06:00,
2012-12-17 21:11:00,17.1,15.2,29.81,NW,311,0.0,2.0,92,0.00,,---,0.00,VWS V13.01,2012-12-18 03:11:00,
2012-12-17 21:16:00,17.1,15.2,29.80,NW,311,0.0,0.0,92,0.00,,---,0.00,VWS V13.01,2012-12-18 03:16:00,
2012-12-17 21:21:00,17.1,15.2,29.80,NW,311,0.0,1.0,92,0.00,,---,0.00,VWS V13.01,2012-12-18 03:21:00,
2012-12-17 21:26:00,17.1,15.2,29.80,NW,311,0.0,1.0,92,0.00,,---,0.00,VWS V13.01,2012-12-18 03:26:00,
2012-12-17 21:31:00,17.1,15.2,29.81,NW,311,1.0,1.0,92,0.00,,---,0.00,VWS V13.01,2012-12-18 03:31:00,
2012-12-17 21:36:00,17.1,15.2,29.81,NW,311,0.0,1.0,92,0.00,,---,0.00,VWS V13.01,2012-12-18 03:36:00,
2012-12-17 21:41:00,17.1,15.2,29.81,NW,311,0.0,1.0,92,0.00,,---,0.00,VWS V13.01,2012-12-18 03:41:00,
2012-12-17 21:46:00,17.1,15.2,29.80,NW,311,0.0,0.0,92,0.00,,---,0.00,VWS V13.01,2012-12-18 03:46:00,
2012-12-17 21:51:00,17.1,15.2,29.80,NW,311,0.0,0.0,92,0.00,,---,0.00,VWS V13.01,2012-12-18 03:51:00,
2012-12-17 21:56:00,17.1,15.2,29.80,NW,311,0.0,0.0,92,0.00,,---,0.00,VWS V13.01,2012-12-18 03:56:00,
2012-12-17 22:02:00,17.2,15.3,29.80,NW,311,0.0,0.0,92,0.00,,---,0.00,VWS V13.01,2012-12-18 04:02:00,
2012-12-17 22:07:00,17.2,15.3,29.80,NW,311,0.0,1.0,92,0.00,,---,0.00,VWS V13.01,2012-12-18 04:07:00,
2012-12-17 22:12:00,17.2,15.3,29.80,NW,311,0.0,1.0,92,0.00,,---,0.00,VWS V13.01,2012-12-18 04:12:00,
2012-12-17 22:17:00,17.3,15.4,29.80,NW,311,0.0,0.0,92,0.00,,---,0.00,VWS V13.01,2012-12-18 04:17:00,
2012-12-17 22:22:00,17.2,15.3,29.80,NW,311,0.0,1.0,92,0.00,,---,0.00,VWS V13.01,2012-12-18 04:22:00,
2012-12-17 22:27:00,17.2,15.3,29.80,NW,311,0.0,1.0,92,0.00,,---,0.00,VWS V13.01,2012-12-18 04:27:00,
2012-12-17 22:32:00,17.2,15.5,29.79,NW,311,0.0,0.0,93,0.00,,---,0.00,VWS V13.01,2012-12-18 04:32:00,
2012-12-17 22:37:00,17.2,15.5,29.79,NW,311,0.0,0.0,93,0.00,,---,0.00,VWS V13.01,2012-12-18 04:37:00,
2012-12-17 22:42:00,17.3,15.6,29.79,NW,311,0.0,1.0,93,0.00,,---,0.00,VWS V13.01,2012-12-18 04:42:00,
2012-12-17 22:47:00,17.3,15.6,29.79,NW,311,0.0,1.0,93,0.00,,---,0.00,VWS V13.01,2012-12-18 04:47:00,
2012-12-17 22:52:00,17.3,15.6,29.79,WNW,300,0.0,2.0,93,0.00,,---,0.00,VWS V13.01,2012-12-18 04:52:00,
2012-12-17 22:58:00,17.1,15.2,29.79,WSW,257,0.0,3.0,92,0.00,,---,0.00,VWS V13.01,2012-12-18 04:58:00,
2012-12-17 23:01:00,17.1,15.2,29.80,WSW,257,0.0,3.0,92,0.00,,---,0.00,VWS V13.01,2012-12-18 05:01:00,
2012-12-17 23:04:00,17.1,15.2,29.80,WSW,257,2.0,2.0,92,0.00,,---,0.00,VWS V13.01,2012-12-18 05:04:00,
2012-12-17 23:10:00,17.1,15.2,29.80,WSW,257,1.0,2.0,92,0.00,,---,0.00,VWS V13.01,2012-12-18 05:10:00,
2012-12-17 23:15:00,17.1,15.2,29.80,WSW,257,0.0,2.0,92,0.00,,---,0.00,VWS V13.01,2012-12-18 05:15:00,
2012-12-17 23:20:00,17.1,15.2,29.80,WSW,257,0.0,2.0,92,0.00,,---,0.00,VWS V13.01,2012-12-18 05:20:00,
2012-12-17 23:25:00,17.1,15.2,29.80,WSW,257,0.0,2.0,92,0.00,,---,0.00,VWS V13.01,2012-12-18 05:25:00,
2012-12-17 23:30:00,17.1,15.2,29.79,WSW,257,0.0,2.0,92,0.00,,---,0.00,VWS V13.01,2012-12-18 05:30:00,
2012-12-17 23:35:00,17.2,15.3,29.79,WSW,257,0.0,0.0,92,0.00,,---,0.00,VWS V13.01,2012-12-18 05:35:00,
2012-12-17 23:40:00,17.2,15.3,29.79,WSW,257,0.0,1.0,92,0.00,,---,0.00,VWS V13.01,2012-12-18 05:40:00,
2012-12-17 23:46:00,17.1,15.2,29.80,WSW,257,0.0,3.0,92,0.00,,---,0.00,VWS V13.01,2012-12-18 05:46:00,
2012-12-17 23:51:00,17.0,15.1,29.80,WSW,257,0.0,2.0,92,0.00,,---,0.00,VWS V13.01,2012-12-18 05:51:00,
2012-12-17 23:56:00,17.0,15.1,29.80,WSW,257,0.0,2.0,92,0.00,,---,0.00,VWS V13.01,2012-12-18 05:56:00,